SXM-7

Last updated on Tue Oct 28 2025 00:02:51 GMT+0000 (Coordinated Universal Time)

1 47240U 20096A 25299.60000383 -.00000194 00000+0 00000+0 0 9994 2 47240 0.0230 143.3180 0004443 350.6360 32.1097 1.00274933 5109
UTC large
Height (km)
Speed (km/s)
/
Latitude / Longitude
Inclination (degrees)
Orbital Period (minutes)
Azimuth
Elevation
Range (km)
Doppler Factor

Next 0 passes for location: London (51.5072 / 0.1276)

Sorry there are no passes over London.